This demonstration page uses our WeatherBlox Daily Observations layout. Learn more.

Left ArrowRight Arrow

31.84235, -102.49876

Hourly Observations for August 18, 2017

Temp ( °F °C ) Dew Point ( °F °C ) Humidity (%) Winds ( mph kmh ) Pressure ( in mb ) Visibility ( mi km ) Precip ( " mm )
12:53 am 00:53 Clear 76 24.4 66 18.9 72 72 SSE 8 13 29.95 1014 10 16 0.00 0.00
1:53 am 01:53 Clear 74 23.3 65 18.3 74 74 SSE 6 9 29.94 1014 10 16 0.00 0.00
2:53 am 02:53 Clear 74 23.3 64 17.8 71 71 SSE 3 6 29.92 1013 10 16 0.00 0.00
3:53 am 03:53 Clear 73 22.8 64 17.8 74 74 Calm 29.91 1013 10 16 0.00 0.00
4:53 am 04:53 Clear 72 22.2 65 18.3 79 79 S 5 7 29.91 1013 10 16 0.00 0.00
5:53 am 05:53 Clear 72 22.2 64 17.8 76 76 SSE 6 9 29.91 1013 10 16 0.00 0.00
6:53 am 06:53 Clear 72 22.2 65 18.3 79 79 SSE 6 9 29.93 1014 10 16 0.00 0.00
7:53 am 07:53 Sunny 73 22.8 66 18.9 79 79 S 6 9 29.96 1015 10 16 0.00 0.00
8:53 am 08:53 Sunny 76 24.4 67 19.4 74 74 S 9 15 29.98 1015 10 16 0.00 0.00
9:53 am 09:53 Sunny 79 26.1 68 20 69 69 S 12 19 29.98 1015 10 16 0.00 0.00
10:53 am 10:53 Sunny 83 28.3 68 20 61 61 S 12 19 29.99 1016 10 16 0.00 0.00
11:53 am 11:53 Sunny 86 30 68 20 55 55 S 14 22 29.98 1015 10 16 0.00 0.00
12:53 pm 12:53 Sunny 89 31.7 67 19.4 48 48 S 13 20 29.97 1015 10 16 0.00 0.00
1:53 pm 13:53 Mostly Sunny 89 31.7 64 17.8 43 43 VRB 7 11 29.94 1014 10 16 0.00 0.00
2:53 pm 14:53 Mostly Cloudy 91 32.8 63 17.2 39 39 VRB 6 9 29.92 1013 10 16 0.00 0.00
3:53 pm 15:53 Mostly Sunny 91 32.8 62 16.7 38 38 SSE 17 28 29.91 1013 10 16 0.00 0.00
4:27 pm 16:27 Partly Cloudy with Thunderstorms 91 32.8 62 16.7 38 38 SSE 18 30 29.83 1010 10 16 0.00 0.00
4:48 pm 16:48 Sunny with Nearby Thunderstorms 90 32 63 17 41 41 S 24 39 29.83 1010 10 16 0.00 0.00
4:53 pm 16:53 Sunny 87 30.6 61 16.1 42 42 S 18 30 29.92 1013 10 16 0.00 0.00
5:53 pm 17:53 Sunny 87 30.6 65 18.3 48 48 S 13 20 29.91 1013 10 16 0.00 0.00
6:53 pm 18:53 Sunny 84 28.9 63 17.2 49 49 SSE 12 19 29.91 1013 10 16 0.00 0.00
7:53 pm 19:53 Sunny 84 28.9 61 16.1 46 46 S 14 22 29.91 1013 10 16 0.00 0.00
8:53 pm 20:53 Clear 81 27.2 58 14.4 45 45 S 7 11 29.91 1013 10 16 0.00 0.00
9:53 pm 21:53 Clear 79 26.1 59 15 50 50 S 6 9 29.94 1014 10 16 0.00 0.00
10:53 pm 22:53 Clear 78 25.6 60 15.6 54 54 S 7 11 29.95 1014 10 16 0.00 0.00
11:53 pm 23:53 Clear 76 24.4 60 15.6 58 58 Calm 29.95 1014 10 16 0.00 0.00

Powered by AerisWeather